CHUANG XIN 26 (CX-26)

Last updated on Wed Aug 19 2026 00:03:17 GMT+0000 (Coordinated Universal Time)

1 69972U 26158A 26229.99603477 .00000138 00000+0 12624-3 0 9990 2 69972 49.9835 137.7667 0005072 58.9538 301.1873 14.25122423 5523
UTC large
Height (km)
Speed (km/s)
/
Latitude / Longitude
Inclination (degrees)
Orbital Period (minutes)
Azimuth
Elevation
Range (km)
Doppler Factor

Next 0 passes for location: London (51.5072 / 0.1276)

No passes found over London.
CHUANG XIN 26 (CX-26)